Regional Weather Roundup
Issued by NWS Sterling, VA

Home | Current Version | Previous Version | Graphics & Text | Print | Product List | Glossary On
Versions: 1 2 3 4 5 6 7 8 9 10 11 12 13 14 15 16 17 18 19 20 21 22 23 24 25 26 27 28 29 30 31 32 33 34 35 36 37 38 39 40 41 42 43 44 45 46 47 48 49 50
000
ASUS41 KLWX 211110
RWRLWX

REGIONAL WEATHER ROUNDUP
NATIONAL WEATHER SERVICE BALTIMORE MD/WASHINGTON DC
600 AM EST TUE FEB 21 2017

Note: "FAIR" indicates few or no clouds below 12,000 feet
with no significant weather and/or obstructions to visibility.
 TC=TEMPERATURE CELSIUS

 * =Non NWS site. Station does not report precipitation (e.g. rain,
    snow, etc.), thunder, or fog.

DCZ001-MDZ009-015-VAZ040>042-051-053>054-211200-
WASHINGTON METRO

CITY           SKY/WX    TMP DP  RH WIND       PRES   REMARKS
WASHINGTON NAT CLOUDY    42  25  50 E6        30.36S
DULLES         CLOUDY    39  23  52 CALM      30.33S
ANDREWS AFB    CLOUDY    38  24  55 NE3       30.34R
FT BELVOIR     CLOUDY    40  26  56 CALM      30.35R
QUANTICO       CLOUDY    44  30  57 E5        30.35R
COLLEGE PARK*  MOCLDY    37  23  56 CALM      30.35R
LEESBURG*      CLOUDY    41  27  56 MISG      30.34S
MANASSAS*      CLOUDY    32  29  88 CALM      30.34R
GAITHERSBURG*  CLOUDY    37  16  41 E6        30.37S

$$

MDZ006>007-011-014-211200-
BALTIMORE METRO

CITY           SKY/WX    TMP DP  RH WIND       PRES   REMARKS
BWI AIRPORT    CLOUDY    37  21  52 E6        30.35R
MD SCIENCE CTR   N/A     41  16  36 MISG      30.37R
MARTIN STATE   MOCLDY    43  25  49 NE3       30.38
ANNAPOLIS      CLOUDY    41  24  51 E5        30.35R
FORT MEADE*    CLOUDY    34  23  64 E3        30.37F

$$

MDZ012-015-019>023-211200-
MARYLAND EASTERN SHORE

CITY           SKY/WX    TMP DP  RH WIND       PRES   REMARKS
OCEAN CITY     PTCLDY    39  34  82 NE5       30.33R
SALISBURY      PTCLDY    34  31  88 W3        30.34R
BAY BRIDGE AP* CLOUDY    39  23  52 E3        30.36R
EASTON*        CLOUDY    37  27  67 NE3       30.39R

$$

MDZ017>025-211200-
SOUTHERN MARYLAND

CITY           SKY/WX    TMP DP  RH WIND       PRES   REMARKS
PATUXENT RIVER CLOUDY    38  33  82 E6        30.34R
ST INIGOES     MOCLDY    40  32  73 NE5       30.33S
LEONARDTOWN*   MOCLDY    37  30  75 NE3       30.35S

$$

MDZ003>005-211200-
NORTH CENTRAL MARYLAND

CITY           SKY/WX    TMP DP  RH WIND       PRES   REMARKS
FREDERICK*     CLOUDY    32  32 100 CALM      30.37S
HAGERSTOWN APT PTCLDY    41  18  39 E5        30.29S
WESTMINSTER*   CLOUDY    37  18  44 SE3       30.32F

$$

MDZ501>502-211200-
WESTERN MARYLAND

CITY           SKY/WX    TMP DP  RH WIND       PRES   REMARKS
OAKLAND*       CLOUDY    36  27  69 SE20      30.14F WCI  25
CUMBERLAND*    CLOUDY    41  32  70 NW3       30.29R

$$

VAZ025>031-211200-
SHENANDOAH VALLEY

CITY           SKY/WX    TMP DP  RH WIND       PRES   REMARKS
WINCHESTER*    CLOUDY    41  23  48 E7        30.28S
FRONT ROYAL*   CLOUDY    41  30  65 CALM      30.26F
LURAY*         MOCLDY    36  34  93 CALM      30.27R
NEW MARKET*    CLOUDY    32  31  93 CALM      30.26F
STAUNTON*      MOCLDY    33  31  90 SW3       30.28F
WAYNESBORO*    CLOUDY    43  29  57 SE6       30.28R

$$

WVZ021-048>050-054>055-211200-
EASTERN WEST VIRGINIA PANHANDLE

CITY           SKY/WX    TMP DP  RH WIND       PRES   REMARKS
MARTINSBURG    PTCLDY    38  19  46 E5        30.29S
PETERSBURG*    CLOUDY    35  34  94 CALM      30.24F

$$

VAZ036>039-050-211200-
CENTRAL FOOTHILLS

CITY           SKY/WX    TMP DP  RH WIND       PRES   REMARKS
CHARLOTTESVILL CLOUDY    45  31  58 CALM      30.30R
CULPEPER*      CLOUDY    34  32  92 CALM      30.33R
ORANGE*        CLOUDY    34  32  93 CALM      30.33R
GORDONSVILLE*  CLOUDY    35  33  91 CALM      30.31R
WARRENTON*     CLOUDY    31  27  83 CALM      30.31F

$$

VAZ055>057-211200-
NORTH AND CENTRAL PIEDMONT

CITY           SKY/WX    TMP DP  RH WIND       PRES   REMARKS
FREDERICKSBRG* CLOUDY    38  34  84 E6        30.32S
STAFFORD*      CLOUDY    35  30  81 CALM      30.36S

$$

NCZ024-NYZ072-PAZ021-071-VAZ022-071-211200-
OTHER REGIONAL OBSERVATIONS

CITY           SKY/WX    TMP DP  RH WIND       PRES   REMARKS
NEW YORK CITY  CLOUDY    35  14  42 NE6       30.40S
PHILADELPHIA   MOCLDY    35  17  47 NE7       30.38R
PITTSBURGH     CLOUDY    46  32  58 SE10      30.08F
ROANOKE        MOCLDY    47  33  58 CALM      30.29S
RICHMOND       CLOUDY    39  35  86 NE5       30.31S
RALEIGH        MOCLDY    45  35  68 NE3       30.27S

$$

ANZ530>537-211200-
MARINE OBSERVATIONS

STATION/POSITION TIME  TEMP    WIND        PRES
                       AIR SEA DIR/SP/G
                 (UTC) (F)     (DEG/KT/KT) (MB)
THOMAS PT LIGHT  1100   40 43   50/  6/  7   N/A
BALT KEY BRIDGE  1048   40      80/  4/  5 1028.5R
COVE POINT       1048   40      70/  6/  6 1028.1R
LEWISETTA        1048   43 47   90/  9/ 11 1026.8R
SOLOMONS ISLAND  1048   41 43   70/  8/  9   N/A
PINEY POINT      1048           90/  4/  5   N/A

$$




USA.gov is the U.S. government's official web portal to all federal, state and local government web resources and services.